Sterling, IL

4:13 AM CDT on August 24, 2017 (GMT -0500)
Whiteside County-Bittorf

Weather History for KSQI - April, 2014

Change the Weather History Date:

Tuesday, April 1, 2014

  Actual Average Record
Temperature  
Mean Temperature 40 °F -  
Max Temperature 51 °F 53 °F 82 °F (2003)
Min Temperature 28 °F 33 °F 23 °F (2002)
Degree Days  
Heating Degree Days 26    
Moisture  
Dew Point 25 °F    
Average Humidity 56    
Maximum Humidity 65    
Minimum Humidity 41    
Precipitation  
Precipitation 0.00 in - - ()
Sea Level Pressure  
Sea Level Pressure 29.92 in    
Wind  
Wind Speed 22 mph (West)    
Max Wind Speed 32 mph    
Max Gust Speed 44 mph    
Visibility 10 miles    
Events      
Averages and records for this station are not official NWS values.
T = Trace of Precipitation, MM = Missing Value Source: NWS Daily Summary

Daily Weather History Graph

Daily Weather History Graph

Search for Another Location

Airport or City:

Trip Planner

Search our weather history database for the weather conditions in past years. The results will help you decide how hot, cold, wet, or windy it might be!

Date:

Astronomy

Apr. 01, 2014 Rise Set
Actual Time 6:41 AM CDT 7:24 PM CDT
Civil Twilight 6:13 AM CDT 7:52 PM CDT
Nautical Twilight 5:40 AM CDT 8:25 PM CDT
Astronomical Twilight 5:06 AM CDT 9:00 PM CDT
Moon 7:42 AM CDT (4/1) 9:48 PM CDT (4/1)
Length of Visible Light 13h 38m
Length of Day
12h 42m
Waxing Crescent, 5% of the Moon is Illuminated
Apr 1
Waxing Crescent
Apr 7
First Quarter
Apr 15
Full
Apr 22
Last Quarter
Apr 29
New

Hourly Weather History & Observations

Time (CDT) Temp. Windchill Dew Point Humidity Pressure Visibility Wind Dir Wind Speed Gust Speed Precip Events Conditions
12:15 AM 51.8 °F - 33.8 °F 50% 29.72 in 10.0 mi West 27.6 mph 34.5 mph N/A   Mostly Cloudy
12:35 AM 48.2 °F - 33.8 °F 58% 29.72 in 10.0 mi West 24.2 mph 32.2 mph N/A   Partly Cloudy
12:55 AM 46.4 °F 38.3 °F 33.8 °F 62% 29.72 in 10.0 mi West 23.0 mph 27.6 mph N/A   Partly Cloudy
1:15 AM 46.4 °F 39.2 °F 33.8 °F 62% 29.72 in 10.0 mi West 18.4 mph 28.8 mph N/A   Clear
1:35 AM 44.6 °F 36.6 °F 32.0 °F 61% 29.73 in 10.0 mi West 19.6 mph 28.8 mph N/A   Clear
1:55 AM 42.8 °F 34.5 °F 28.4 °F 57% 29.73 in 10.0 mi West 18.4 mph - N/A   Clear
2:15 AM 41.0 °F 31.4 °F 28.4 °F 61% 29.74 in 10.0 mi West 21.9 mph 28.8 mph N/A   Clear
2:35 AM 39.2 °F 29.6 °F 28.4 °F 65% 29.74 in 10.0 mi West 19.6 mph - N/A   Clear
2:55 AM 37.4 °F 26.1 °F 26.6 °F 65% 29.75 in 10.0 mi West 24.2 mph 27.6 mph N/A   Clear
3:15 AM 35.6 °F 23.7 °F 24.8 °F 65% 29.75 in 10.0 mi West 24.2 mph 33.4 mph N/A   Clear
3:35 AM 33.8 °F 21.3 °F 23.0 °F 65% 29.75 in 10.0 mi West 24.2 mph 34.5 mph N/A   Clear
3:55 AM 33.8 °F 21.3 °F 19.4 °F 56% 29.76 in 10.0 mi West 24.2 mph - N/A   Scattered Clouds
4:15 AM 33.8 °F 21.9 °F 19.4 °F 56% 29.75 in 10.0 mi West 21.9 mph 29.9 mph N/A   Scattered Clouds
4:35 AM 33.8 °F 21.6 °F 21.2 °F 60% 29.76 in 10.0 mi West 23.0 mph 28.8 mph N/A   Mostly Cloudy
4:55 AM 33.8 °F 20.1 °F 21.2 °F 60% 29.76 in 10.0 mi West 29.9 mph 36.8 mph N/A   Overcast
5:15 AM 33.8 °F 20.3 °F 19.4 °F 56% 29.77 in 10.0 mi West 28.8 mph 35.7 mph N/A   Overcast
5:35 AM 32.0 °F 18.9 °F 19.4 °F 60% 29.79 in 10.0 mi West 24.2 mph 35.7 mph N/A   Overcast
5:55 AM 32.0 °F 18.4 °F 19.4 °F 60% 29.80 in 10.0 mi West 26.5 mph 32.2 mph N/A   Overcast
6:15 AM 30.2 °F 15.4 °F 19.4 °F 64% 29.82 in 10.0 mi West 28.8 mph 35.7 mph N/A   Overcast
6:35 AM - - - N/A% 29.83 in 10.0 mi West 29.9 mph 35.7 mph N/A   Overcast
6:55 AM - - - N/A% 29.85 in 10.0 mi West 32.2 mph 43.7 mph N/A   Overcast
7:15 AM 30.2 °F 14.9 °F 17.6 °F 60% 29.85 in 10.0 mi West 31.1 mph 38.0 mph N/A   Overcast
7:35 AM 30.2 °F 15.9 °F 15.8 °F 55% 29.86 in 10.0 mi West 26.5 mph 36.8 mph N/A   Overcast
7:55 AM 28.4 °F 13.8 °F 15.8 °F 59% 29.86 in 10.0 mi West 25.3 mph 39.1 mph N/A   Overcast
8:15 AM 30.2 °F 15.7 °F 17.6 °F 60% 29.87 in 10.0 mi West 27.6 mph 34.5 mph N/A   Overcast
8:35 AM 30.2 °F 15.4 °F 17.6 °F 60% 29.87 in 10.0 mi West 28.8 mph 35.7 mph N/A   Overcast
8:55 AM 28.4 °F 13.8 °F 17.6 °F 64% 29.88 in 10.0 mi West 25.3 mph 31.1 mph N/A   Overcast
9:15 AM 30.2 °F 15.4 °F 17.6 °F 60% 29.89 in 10.0 mi West 28.8 mph 33.4 mph N/A   Overcast
9:35 AM 30.2 °F 15.7 °F 17.6 °F 60% 29.90 in 10.0 mi WSW 27.6 mph 34.5 mph N/A   Overcast
9:55 AM 30.2 °F 15.7 °F 17.6 °F 60% 29.90 in 10.0 mi West 27.6 mph 34.5 mph N/A   Overcast
10:15 AM 30.2 °F 16.5 °F 17.6 °F 60% 29.91 in 10.0 mi WSW 24.2 mph 31.1 mph N/A   Overcast
10:35 AM 32.0 °F 18.4 °F 19.4 °F 60% 29.91 in 10.0 mi West 26.5 mph 33.4 mph N/A   Overcast
10:55 AM 33.8 °F 20.8 °F 19.4 °F 56% 29.93 in 10.0 mi West 26.5 mph 31.1 mph N/A   Overcast
11:15 AM 33.8 °F 21.6 °F 19.4 °F 56% 29.94 in 10.0 mi WSW 23.0 mph 32.2 mph N/A   Overcast
11:35 AM 35.6 °F 24.0 °F 21.2 °F 56% 29.94 in 10.0 mi West 23.0 mph 33.4 mph N/A   Overcast
11:55 AM 37.4 °F 26.1 °F 19.4 °F 48% 29.95 in 10.0 mi West 24.2 mph 28.8 mph N/A   Mostly Cloudy
12:15 PM 39.2 °F 28.7 °F 19.4 °F 45% 29.96 in 10.0 mi West 23.0 mph 29.9 mph N/A   Partly Cloudy
12:35 PM 39.2 °F 28.7 °F 21.2 °F 49% 29.96 in 10.0 mi West 23.0 mph 33.4 mph N/A   Clear
12:55 PM 41.0 °F 30.5 °F 21.2 °F 45% 29.97 in 10.0 mi West 26.5 mph 33.4 mph N/A   Clear
1:15 PM 42.8 °F 33.8 °F 23.0 °F 46% 29.97 in 10.0 mi West 21.9 mph 33.4 mph N/A   Clear
1:35 PM 44.6 °F 35.9 °F 24.8 °F 46% 29.97 in 10.0 mi West 23.0 mph 35.7 mph N/A   Clear
1:55 PM 44.6 °F 36.1 °F 24.8 °F 46% 29.97 in 10.0 mi West 21.9 mph 29.9 mph N/A   Clear
2:15 PM 46.4 °F 38.5 °F 26.6 °F 46% 29.97 in 10.0 mi WNW 21.9 mph 31.1 mph N/A   Clear
2:35 PM 46.4 °F 38.5 °F 26.6 °F 46% 29.96 in 10.0 mi WNW 21.9 mph 31.1 mph N/A   Clear
2:55 PM 48.2 °F - 28.4 °F 46% 29.96 in 10.0 mi WNW 20.7 mph 29.9 mph N/A   Clear
3:15 PM 50.0 °F - 28.4 °F 43% 29.97 in 10.0 mi West 23.0 mph 28.8 mph N/A   Clear
3:35 PM 51.8 °F - 28.4 °F 41% 29.96 in 10.0 mi WNW 19.6 mph - N/A   Clear
3:55 PM 50.0 °F - 28.4 °F 43% 29.97 in 10.0 mi West 19.6 mph - N/A   Clear
4:15 PM 50.0 °F - 28.4 °F 43% 29.97 in 10.0 mi WNW 21.9 mph 27.6 mph N/A   Clear
4:35 PM 48.2 °F - 28.4 °F 46% 29.98 in 10.0 mi West 20.7 mph - N/A   Clear
4:55 PM 48.2 °F - 28.4 °F 46% 29.99 in 10.0 mi West 21.9 mph - N/A   Clear
5:15 PM 48.2 °F - 28.4 °F 46% 29.99 in 10.0 mi West 20.7 mph - N/A   Clear
5:35 PM 46.4 °F 40.1 °F 28.4 °F 50% 30.00 in 10.0 mi WNW 15.0 mph 20.7 mph N/A   Clear
5:55 PM 46.4 °F 40.7 °F 28.4 °F 50% 30.00 in 10.0 mi WNW 12.7 mph 25.3 mph N/A   Clear
6:15 PM 46.4 °F 39.8 °F 28.4 °F 50% 30.00 in 10.0 mi WNW 16.1 mph 21.9 mph N/A   Clear
6:35 PM 44.6 °F 37.8 °F 28.4 °F 53% 30.01 in 10.0 mi WNW 15.0 mph - N/A   Clear
6:55 PM 44.6 °F 37.8 °F 28.4 °F 53% 30.02 in 10.0 mi WNW 15.0 mph - N/A   Clear
7:15 PM 44.6 °F 37.8 °F 28.4 °F 53% 30.02 in 10.0 mi WNW 15.0 mph 20.7 mph N/A   Scattered Clouds
7:35 PM 44.6 °F 39.7 °F 28.4 °F 53% 30.03 in 10.0 mi WNW 9.2 mph - N/A   Scattered Clouds
7:55 PM 42.8 °F 38.0 °F 28.4 °F 57% 30.04 in 10.0 mi West 8.1 mph - N/A   Scattered Clouds
8:15 PM 42.8 °F 37.0 °F 28.4 °F 57% 30.06 in 10.0 mi WSW 10.4 mph - N/A   Scattered Clouds
8:35 PM 42.8 °F 37.0 °F 30.2 °F 61% 30.07 in 10.0 mi WSW 10.4 mph - N/A   Clear
8:55 PM 42.8 °F 36.6 °F 30.2 °F 61% 30.08 in 10.0 mi West 11.5 mph - N/A   Clear
9:15 PM 42.8 °F 37.0 °F 30.2 °F 61% 30.07 in 10.0 mi West 10.4 mph - N/A   Clear
9:35 PM 42.8 °F 37.5 °F 30.2 °F 61% 30.07 in 10.0 mi West 9.2 mph - N/A   Clear
9:55 PM 41.0 °F 35.2 °F 30.2 °F 65% 30.08 in 10.0 mi West 9.2 mph - N/A   Clear
10:15 PM 42.8 °F 38.6 °F 30.2 °F 61% 30.08 in 10.0 mi WSW 6.9 mph - N/A   Clear
10:35 PM 41.0 °F 35.2 °F 30.2 °F 65% 30.09 in 10.0 mi West 9.2 mph - N/A   Clear
10:55 PM 41.0 °F 35.2 °F 30.2 °F 65% 30.09 in 10.0 mi West 9.2 mph - N/A   Clear
11:15 PM 41.0 °F 35.8 °F 30.2 °F 65% 30.09 in 10.0 mi West 8.1 mph - N/A   Clear
11:35 PM 41.0 °F 37.1 °F 30.2 °F 65% 30.09 in 10.0 mi West 5.8 mph - N/A   Clear
11:55 PM 41.0 °F 35.8 °F 30.2 °F 65% 30.09 in 10.0 mi West 8.1 mph - N/A   Clear